Location: Monrovia
(34.7865°N, 86.7139°W)
Time: 00:57:12
(UTC+00:00)

Cosmos 1356 - Pass Details

Date: 14 July 2020
Orbit: 443 x 447 km, 81.1° (Epoch: 12 August)

Event Time Altitude Azimuth Distance (km) Brightness Sun altitude
Exits shadow 08:19:07 49° 20° (NNE) 588 4.3 -23.8°
Drops below altitude 10° 08:21:43 10° 11° (N) 1,577 7.0 -23.5°
Sets 08:23:47 0° 10° (N) 2,452 8.1 -23.2°
